Year,Month,Day,Hour,Minute,Value (Times are PST for windgust in km/hr)
2007,12,04,00,00,22.50
2007,12,04,00,01,20.90
2007,12,04,00,02,19.30
2007,12,04,00,03,8.10
2007,12,04,00,04,9.60
2007,12,04,00,05,35.40
2007,12,04,00,06,20.90
2007,12,04,00,07,35.40
2007,12,04,00,08,38.60
2007,12,04,00,09,38.60
2007,12,04,00,10,29.00
2007,12,04,00,11,22.50
2007,12,04,00,12,29.00
2007,12,04,00,13,19.30
2007,12,04,00,14,16.10
2007,12,04,00,15,17.70
2007,12,04,00,16,20.90
2007,12,04,00,17,25.70
2007,12,04,00,18,8.10
2007,12,04,00,19,14.50
2007,12,04,00,20,16.10
2007,12,04,00,21,32.20
2007,12,04,00,22,22.50
2007,12,04,00,23,19.30
2007,12,04,00,24,20.90
2007,12,04,00,25,16.10
2007,12,04,00,26,14.50
2007,12,04,00,27,45.10
2007,12,04,00,28,25.70
2007,12,04,00,29,20.90
2007,12,04,00,30,16.10
2007,12,04,00,31,8.10
2007,12,04,00,32,6.40
2007,12,04,00,33,38.60
2007,12,04,00,34,30.60
2007,12,04,00,35,9.60
2007,12,04,00,36,11.30
2007,12,04,00,37,17.70
2007,12,04,00,38,11.30
2007,12,04,00,39,19.30
2007,12,04,00,40,35.40
2007,12,04,00,41,8.10
2007,12,04,00,42,29.00
2007,12,04,00,43,19.30
2007,12,04,00,44,11.30
2007,12,04,00,45,9.60
2007,12,04,00,46,9.60
2007,12,04,00,47,3.20
2007,12,04,00,48,20.90
2007,12,04,00,49,16.10
2007,12,04,00,50,8.10
2007,12,04,00,51,9.60
2007,12,04,00,52,3.20
2007,12,04,00,53,6.40
2007,12,04,00,54,22.50
2007,12,04,00,55,14.50
2007,12,04,00,56,9.60
2007,12,04,00,57,16.10
2007,12,04,00,58,12.90
2007,12,04,00,59,11.30
2007,12,04,01,00,6.40
2007,12,04,01,01,1.60
2007,12,04,01,02,14.50
2007,12,04,01,03,22.50
2007,12,04,01,04,11.30
2007,12,04,01,05,19.30
2007,12,04,01,06,14.50
2007,12,04,01,07,20.90
2007,12,04,01,08,29.00
2007,12,04,01,09,40.20
2007,12,04,01,10,20.90
2007,12,04,01,11,25.70
2007,12,04,01,12,20.90
2007,12,04,01,13,9.60
2007,12,04,01,14,8.10
2007,12,04,01,15,16.10
2007,12,04,01,16,8.10
2007,12,04,01,17,9.60
2007,12,04,01,18,8.10
2007,12,04,01,19,17.70
2007,12,04,01,20,19.30
2007,12,04,01,21,38.60
2007,12,04,01,22,40.20
2007,12,04,01,23,25.70
2007,12,04,01,24,14.50
2007,12,04,01,25,11.30
2007,12,04,01,26,6.40
2007,12,04,01,27,6.40
2007,12,04,01,28,6.40
2007,12,04,01,29,19.30
2007,12,04,01,30,9.60
2007,12,04,01,31,9.60
2007,12,04,01,32,24.20
2007,12,04,01,33,16.10
2007,12,04,01,34,14.50
2007,12,04,01,35,4.80
2007,12,04,01,36,8.10
2007,12,04,01,37,8.10
2007,12,04,01,38,8.10
2007,12,04,01,39,9.60
2007,12,04,01,40,22.50
2007,12,04,01,41,8.10
2007,12,04,01,42,6.40
2007,12,04,01,43,14.50
2007,12,04,01,44,14.50
2007,12,04,01,45,27.40
2007,12,04,01,46,9.60
2007,12,04,01,47,19.30
2007,12,04,01,48,17.70
2007,12,04,01,53,16.10
2007,12,04,01,54,17.70
2007,12,04,01,55,38.60
2007,12,04,01,56,11.30
2007,12,04,01,57,22.50
2007,12,04,01,58,53.10
2007,12,04,01,59,29.00
2007,12,04,02,00,30.60
2007,12,04,02,01,17.70
2007,12,04,02,02,24.20
2007,12,04,02,03,11.30
2007,12,04,02,04,22.50
2007,12,04,02,05,32.20
2007,12,04,02,06,11.30
2007,12,04,02,07,24.20
2007,12,04,02,08,9.60
2007,12,04,02,09,17.70
2007,12,04,02,10,22.50
2007,12,04,02,11,20.90
2007,12,04,02,12,19.30
2007,12,04,02,13,14.50
2007,12,04,02,14,14.50
2007,12,04,02,15,8.10
2007,12,04,02,16,20.90
2007,12,04,02,17,8.10
2007,12,04,02,18,17.70
2007,12,04,02,19,37.00
2007,12,04,02,20,24.20
2007,12,04,02,21,17.70
2007,12,04,02,22,27.40
2007,12,04,02,23,11.30
2007,12,04,02,24,9.60
2007,12,04,02,25,8.10
2007,12,04,02,26,3.20
2007,12,04,02,29,20.90
2007,12,04,02,30,16.10
2007,12,04,02,31,20.90
2007,12,04,02,32,17.70
2007,12,04,02,33,14.50
2007,12,04,02,34,16.10
2007,12,04,02,35,9.60
2007,12,04,02,36,9.60
2007,12,04,02,37,14.50
2007,12,04,02,38,6.40
2007,12,04,02,39,16.10
2007,12,04,02,40,19.30
2007,12,04,02,41,16.10
2007,12,04,02,42,33.80
2007,12,04,02,43,19.30
2007,12,04,02,44,8.10
2007,12,04,02,45,14.50
2007,12,04,02,46,16.10
2007,12,04,02,47,19.30
2007,12,04,02,48,32.20
2007,12,04,02,49,25.70
2007,12,04,02,50,22.50
2007,12,04,02,51,11.30
2007,12,04,02,52,8.10
2007,12,04,02,53,6.40
2007,12,04,02,54,6.40
2007,12,04,02,55,8.10
2007,12,04,02,56,6.40
2007,12,04,02,57,8.10
2007,12,04,02,58,6.40
2007,12,04,02,59,11.30
2007,12,04,03,00,11.30
2007,12,04,03,01,11.30
2007,12,04,03,02,4.80
2007,12,04,03,03,9.60
2007,12,04,03,04,19.30
2007,12,04,03,05,11.30
2007,12,04,03,06,14.50
2007,12,04,03,07,41.80
2007,12,04,03,08,27.40
2007,12,04,03,09,6.40
2007,12,04,03,10,11.30
2007,12,04,03,11,9.60
2007,12,04,03,12,17.70
2007,12,04,03,13,3.20
2007,12,04,03,14,6.40
2007,12,04,03,15,25.70
2007,12,04,03,16,17.70
2007,12,04,03,17,8.10
2007,12,04,03,18,8.10
2007,12,04,03,19,6.40
2007,12,04,03,20,9.60
2007,12,04,03,21,9.60
2007,12,04,03,22,25.70
2007,12,04,03,23,20.90
2007,12,04,03,24,14.50
2007,12,04,03,25,20.90
2007,12,04,03,26,14.50
2007,12,04,03,27,24.20
2007,12,04,03,28,11.30
2007,12,04,03,29,22.50
2007,12,04,03,30,22.50
2007,12,04,03,31,20.90
2007,12,04,03,32,20.90
2007,12,04,03,33,33.80
2007,12,04,03,34,14.50
2007,12,04,03,35,8.10
2007,12,04,03,36,17.70
2007,12,04,03,37,22.50
2007,12,04,03,38,20.90
2007,12,04,03,39,27.40
2007,12,04,03,40,14.50
2007,12,04,03,41,27.40
2007,12,04,03,42,12.90
2007,12,04,03,43,8.10
2007,12,04,03,44,9.60
2007,12,04,03,45,14.50
2007,12,04,03,46,20.90
2007,12,04,03,47,27.40
2007,12,04,03,48,25.70
2007,12,04,03,49,19.30
2007,12,04,03,50,11.30
2007,12,04,03,51,14.50
2007,12,04,03,52,14.50
2007,12,04,03,53,6.40
2007,12,04,03,54,17.70
2007,12,04,03,55,32.20
2007,12,04,03,56,17.70
2007,12,04,03,57,11.30
2007,12,04,03,58,14.50
2007,12,04,03,59,29.00
2007,12,04,04,00,19.30
2007,12,04,04,01,20.90
2007,12,04,04,02,6.40
2007,12,04,04,03,19.30
2007,12,04,04,04,16.10
2007,12,04,04,05,22.50
2007,12,04,04,06,16.10
2007,12,04,04,07,16.10
2007,12,04,04,08,16.10
2007,12,04,04,09,19.30
2007,12,04,04,10,32.20
2007,12,04,04,11,24.20
2007,12,04,04,12,16.10
2007,12,04,04,13,22.50
2007,12,04,04,14,29.00
2007,12,04,04,15,14.50
2007,12,04,04,16,17.70
2007,12,04,04,17,22.50
2007,12,04,04,18,24.20
2007,12,04,04,19,30.60
2007,12,04,04,20,11.30
2007,12,04,04,21,1.60
2007,12,04,04,22,4.80
2007,12,04,04,23,17.70
2007,12,04,04,24,29.00
2007,12,04,04,25,30.60
2007,12,04,04,26,11.30
2007,12,04,04,27,12.90
2007,12,04,04,28,12.90
2007,12,04,04,29,9.60
2007,12,04,04,30,9.60
2007,12,04,04,31,22.50
2007,12,04,04,32,17.70
2007,12,04,04,33,11.30
2007,12,04,04,34,9.60
2007,12,04,04,35,16.10
2007,12,04,04,36,11.30
2007,12,04,04,37,20.90
2007,12,04,04,38,12.90
2007,12,04,04,39,6.40
2007,12,04,04,40,24.20
2007,12,04,04,41,27.40
2007,12,04,04,42,14.50
2007,12,04,04,43,6.40
2007,12,04,04,44,14.50
2007,12,04,04,45,17.70
2007,12,04,04,46,27.40
2007,12,04,04,47,32.20
2007,12,04,04,48,29.00
2007,12,04,04,49,14.50
2007,12,04,04,50,8.10
2007,12,04,04,51,6.40
2007,12,04,04,52,11.30
2007,12,04,04,53,9.60
2007,12,04,04,54,20.90
2007,12,04,04,55,32.20
2007,12,04,04,56,32.20
2007,12,04,04,57,20.90
2007,12,04,04,58,19.30
2007,12,04,04,59,20.90
2007,12,04,05,00,11.30
2007,12,04,05,01,20.90
2007,12,04,05,02,19.30
2007,12,04,05,03,14.50
2007,12,04,05,04,20.90
2007,12,04,05,05,46.70
2007,12,04,05,06,27.40
2007,12,04,05,07,25.70
2007,12,04,05,08,25.70
2007,12,04,05,09,37.00
2007,12,04,05,10,27.40
2007,12,04,05,11,9.60
2007,12,04,05,12,29.00
2007,12,04,05,13,19.30
2007,12,04,05,14,19.30
2007,12,04,05,15,8.10
2007,12,04,05,16,12.90
2007,12,04,05,17,9.60
2007,12,04,05,18,6.40
2007,12,04,05,19,6.40
2007,12,04,05,20,8.10
2007,12,04,05,21,16.10
2007,12,04,05,22,17.70
2007,12,04,05,23,35.40
2007,12,04,05,24,25.70
2007,12,04,05,25,20.90
2007,12,04,05,26,20.90
2007,12,04,05,27,14.50
2007,12,04,05,28,19.30
2007,12,04,05,29,16.10
2007,12,04,05,30,14.50
2007,12,04,05,31,11.30
2007,12,04,05,32,8.10
2007,12,04,05,33,6.40
2007,12,04,05,34,4.80
2007,12,04,05,35,11.30
2007,12,04,05,36,11.30
2007,12,04,05,37,20.90
2007,12,04,05,38,19.30
2007,12,04,05,39,25.70
2007,12,04,05,40,32.20
2007,12,04,05,41,19.30
2007,12,04,05,42,16.10
2007,12,04,05,43,16.10
2007,12,04,05,44,6.40
2007,12,04,05,45,17.70
2007,12,04,05,46,17.70
2007,12,04,05,47,29.00
2007,12,04,05,48,25.70
2007,12,04,05,49,29.00
2007,12,04,05,50,8.10
2007,12,04,05,51,3.20
2007,12,04,05,52,6.40
2007,12,04,05,53,17.70
2007,12,04,05,54,14.50
2007,12,04,05,55,6.40
2007,12,04,05,56,6.40
2007,12,04,05,57,9.60
2007,12,04,05,58,8.10
2007,12,04,05,59,11.30
2007,12,04,06,00,17.70
2007,12,04,06,01,20.90
2007,12,04,06,02,14.50
2007,12,04,06,03,6.40
2007,12,04,06,04,20.90
2007,12,04,06,05,22.50
2007,12,04,06,06,8.10
2007,12,04,06,07,3.20
2007,12,04,06,08,6.40
2007,12,04,06,09,19.30
2007,12,04,06,10,19.30
2007,12,04,06,11,9.60
2007,12,04,06,12,14.50
2007,12,04,06,13,25.70
2007,12,04,06,14,14.50
2007,12,04,06,15,8.10
2007,12,04,06,16,9.60
2007,12,04,06,17,6.40
2007,12,04,06,18,12.90
2007,12,04,06,19,6.40
2007,12,04,06,20,3.20
2007,12,04,06,21,9.60
2007,12,04,06,22,9.60
2007,12,04,06,23,6.40
2007,12,04,06,24,1.60
2007,12,04,06,25,3.20
2007,12,04,06,26,4.80
2007,12,04,06,27,4.80
2007,12,04,06,28,3.20
2007,12,04,06,29,1.60
2007,12,04,06,30,3.20
2007,12,04,06,31,4.80
2007,12,04,06,32,4.80
2007,12,04,06,33,3.20
2007,12,04,06,34,6.40
2007,12,04,06,35,6.40
2007,12,04,06,36,3.20
2007,12,04,06,37,6.40
2007,12,04,06,38,1.60
2007,12,04,06,39,3.20
2007,12,04,06,40,4.80
2007,12,04,06,41,4.80
2007,12,04,06,42,0.00
2007,12,04,06,43,1.60
2007,12,04,06,44,0.00
2007,12,04,06,45,1.60
2007,12,04,06,46,3.20
2007,12,04,06,47,4.80
2007,12,04,06,48,4.80
2007,12,04,06,49,1.60
2007,12,04,06,50,0.00
2007,12,04,06,51,0.00
2007,12,04,06,52,8.10
2007,12,04,06,53,8.10
2007,12,04,06,54,1.60
2007,12,04,06,55,4.80
2007,12,04,06,56,4.80
2007,12,04,06,57,3.20
2007,12,04,06,58,14.50
2007,12,04,06,59,6.40
2007,12,04,07,00,4.80
2007,12,04,07,01,6.40
2007,12,04,07,02,4.80
2007,12,04,07,03,3.20
2007,12,04,07,04,11.30
2007,12,04,07,05,11.30
2007,12,04,07,06,8.10
2007,12,04,07,07,9.60
2007,12,04,07,08,24.20
2007,12,04,07,09,16.10
2007,12,04,07,10,4.80
2007,12,04,07,11,9.60
2007,12,04,07,12,9.60
2007,12,04,07,13,20.90
2007,12,04,07,14,8.10
2007,12,04,07,15,8.10
2007,12,04,07,16,4.80
2007,12,04,07,17,6.40
2007,12,04,07,18,11.30
2007,12,04,07,19,9.60
2007,12,04,07,20,11.30
2007,12,04,07,21,8.10
2007,12,04,07,22,17.70
2007,12,04,07,23,6.40
2007,12,04,07,24,9.60
2007,12,04,07,25,19.30
2007,12,04,07,26,16.10
2007,12,04,07,27,3.20
2007,12,04,07,28,19.30
2007,12,04,07,29,11.30
2007,12,04,07,30,9.60
2007,12,04,07,31,14.50
2007,12,04,07,32,19.30
2007,12,04,07,33,9.60
2007,12,04,07,34,17.70
2007,12,04,07,35,20.90
2007,12,04,07,36,19.30
2007,12,04,07,37,17.70
2007,12,04,07,38,14.50
2007,12,04,07,39,4.80
2007,12,04,07,40,8.10
2007,12,04,07,41,9.60
2007,12,04,07,42,19.30
2007,12,04,07,43,19.30
2007,12,04,07,44,11.30
2007,12,04,07,45,8.10
2007,12,04,07,46,14.50
2007,12,04,07,47,24.20
2007,12,04,07,48,11.30
2007,12,04,07,49,11.30
2007,12,04,07,50,8.10
2007,12,04,07,51,6.40
2007,12,04,07,52,8.10
2007,12,04,07,53,8.10
2007,12,04,07,54,6.40
2007,12,04,07,55,4.80
2007,12,04,07,56,0.00
2007,12,04,07,57,0.00
2007,12,04,07,58,1.60
2007,12,04,07,59,3.20
2007,12,04,08,00,3.20
2007,12,04,08,01,1.60
2007,12,04,08,02,6.40
2007,12,04,08,03,4.80
2007,12,04,08,04,3.20
2007,12,04,08,05,3.20
2007,12,04,08,06,0.00
2007,12,04,08,07,0.00
2007,12,04,08,08,0.00
2007,12,04,08,09,0.00
2007,12,04,08,10,4.80
2007,12,04,08,11,4.80
2007,12,04,08,12,4.80
2007,12,04,08,13,0.00
2007,12,04,08,14,1.60
2007,12,04,08,15,0.00
2007,12,04,08,16,0.00
2007,12,04,08,17,1.60
2007,12,04,08,18,4.80
2007,12,04,08,19,3.20
2007,12,04,08,20,4.80
2007,12,04,08,21,11.30
2007,12,04,08,22,14.50
2007,12,04,08,23,4.80
2007,12,04,08,24,8.10
2007,12,04,08,25,14.50
2007,12,04,08,26,19.30
2007,12,04,08,27,11.30
2007,12,04,08,28,11.30
2007,12,04,08,29,8.10
2007,12,04,08,30,11.30
2007,12,04,08,31,11.30
2007,12,04,08,32,9.60
2007,12,04,08,33,11.30
2007,12,04,08,34,11.30
2007,12,04,08,35,4.80
2007,12,04,08,36,11.30
2007,12,04,08,37,6.40
2007,12,04,08,38,8.10
2007,12,04,08,39,9.60
2007,12,04,08,40,19.30
2007,12,04,08,41,6.40
2007,12,04,08,42,4.80
2007,12,04,08,43,11.30
2007,12,04,08,44,16.10
2007,12,04,08,45,9.60
2007,12,04,08,46,6.40
2007,12,04,08,47,3.20
2007,12,04,08,48,4.80
2007,12,04,08,49,8.10
2007,12,04,08,50,6.40
2007,12,04,08,51,8.10
2007,12,04,08,52,6.40
2007,12,04,08,53,1.60
2007,12,04,08,54,3.20
2007,12,04,08,55,9.60
2007,12,04,08,56,9.60
2007,12,04,08,57,16.10
2007,12,04,08,58,12.90
2007,12,04,08,59,9.60
2007,12,04,09,00,11.30
2007,12,04,09,01,9.60
2007,12,04,09,02,14.50
2007,12,04,09,03,8.10
2007,12,04,09,04,9.60
2007,12,04,09,05,11.30
2007,12,04,09,06,8.10
2007,12,04,09,07,6.40
2007,12,04,09,08,9.60
2007,12,04,09,09,4.80
2007,12,04,09,10,6.40
2007,12,04,09,11,12.90
2007,12,04,09,12,6.40
2007,12,04,09,13,11.30
2007,12,04,09,14,16.10
2007,12,04,09,15,9.60
2007,12,04,09,16,16.10
2007,12,04,09,17,17.70
2007,12,04,09,18,22.50
2007,12,04,09,19,12.90
2007,12,04,09,20,20.90
2007,12,04,09,21,25.70
2007,12,04,09,22,9.60
2007,12,04,09,23,25.70
2007,12,04,09,24,16.10
2007,12,04,09,25,30.60
2007,12,04,09,26,16.10
2007,12,04,09,27,20.90
2007,12,04,09,28,16.10
2007,12,04,09,29,9.60
2007,12,04,09,30,4.80
2007,12,04,09,31,4.80
2007,12,04,09,32,8.10
2007,12,04,09,33,16.10
2007,12,04,09,34,6.40
2007,12,04,09,35,8.10
2007,12,04,09,36,3.20
2007,12,04,09,37,4.80
2007,12,04,09,38,9.60
2007,12,04,09,39,4.80
2007,12,04,09,40,19.30
2007,12,04,09,41,3.20
2007,12,04,09,42,6.40
2007,12,04,09,43,9.60
2007,12,04,09,44,3.20
2007,12,04,09,45,8.10
2007,12,04,09,46,9.60
2007,12,04,09,47,6.40
2007,12,04,09,48,8.10
2007,12,04,09,49,4.80
2007,12,04,09,50,6.40
2007,12,04,09,51,6.40
2007,12,04,09,52,0.00
2007,12,04,09,53,0.00
2007,12,04,09,54,6.40
2007,12,04,09,55,4.80
2007,12,04,09,56,8.10
2007,12,04,09,57,4.80
2007,12,04,09,58,0.00
2007,12,04,09,59,6.40
2007,12,04,10,00,4.80
2007,12,04,10,01,0.00
2007,12,04,10,02,4.80
2007,12,04,10,03,0.00
2007,12,04,10,04,3.20
2007,12,04,10,05,4.80
2007,12,04,10,06,4.80
2007,12,04,10,07,4.80
2007,12,04,10,08,3.20
2007,12,04,10,09,9.60
2007,12,04,10,10,6.40
2007,12,04,10,11,0.00
2007,12,04,10,12,3.20
2007,12,04,10,13,8.10
2007,12,04,10,14,8.10
2007,12,04,10,15,4.80
2007,12,04,10,16,4.80
2007,12,04,10,17,1.60
2007,12,04,10,18,3.20
2007,12,04,10,19,6.40
2007,12,04,10,20,6.40
2007,12,04,10,21,1.60
2007,12,04,10,22,3.20
2007,12,04,10,23,4.80
2007,12,04,10,24,0.00
2007,12,04,10,25,3.20
2007,12,04,10,26,1.60
2007,12,04,10,27,3.20
2007,12,04,10,28,4.80
2007,12,04,10,29,1.60
2007,12,04,10,30,3.20
2007,12,04,10,31,6.40
2007,12,04,10,32,6.40
2007,12,04,10,33,6.40
2007,12,04,10,34,9.60
2007,12,04,10,35,11.30
2007,12,04,10,36,4.80
2007,12,04,10,37,3.20
2007,12,04,10,38,4.80
2007,12,04,10,39,4.80
2007,12,04,10,40,6.40
2007,12,04,10,41,4.80
2007,12,04,10,42,6.40
2007,12,04,10,43,4.80
2007,12,04,10,44,3.20
2007,12,04,10,45,4.80
2007,12,04,10,46,3.20
2007,12,04,10,47,1.60
2007,12,04,10,48,3.20
2007,12,04,10,49,4.80
2007,12,04,10,50,3.20
2007,12,04,10,51,1.60
2007,12,04,10,52,4.80
2007,12,04,10,53,12.90
2007,12,04,10,54,4.80
2007,12,04,10,55,4.80
2007,12,04,10,56,3.20
2007,12,04,10,57,6.40
2007,12,04,10,58,4.80
2007,12,04,10,59,1.60
2007,12,04,11,00,1.60
2007,12,04,11,01,0.00
2007,12,04,11,02,6.40
2007,12,04,11,03,6.40
2007,12,04,11,04,4.80
2007,12,04,11,05,4.80
2007,12,04,11,06,6.40
2007,12,04,11,07,1.60
2007,12,04,11,08,1.60
2007,12,04,11,09,0.00
2007,12,04,11,10,16.10
2007,12,04,11,11,11.30
2007,12,04,11,12,3.20
2007,12,04,11,13,4.80
2007,12,04,11,14,6.40
2007,12,04,11,15,4.80
2007,12,04,11,16,17.70
2007,12,04,11,17,6.40
2007,12,04,11,18,4.80
2007,12,04,11,19,11.30
2007,12,04,11,20,6.40
2007,12,04,11,21,11.30
2007,12,04,11,22,14.50
2007,12,04,11,23,11.30
2007,12,04,11,24,11.30
2007,12,04,11,25,6.40
2007,12,04,11,26,4.80
2007,12,04,11,27,8.10
2007,12,04,11,28,1.60
2007,12,04,11,29,4.80
2007,12,04,11,30,3.20
2007,12,04,11,31,3.20
2007,12,04,11,32,8.10
2007,12,04,11,33,4.80
2007,12,04,11,34,17.70
2007,12,04,11,35,9.60
2007,12,04,11,36,6.40
2007,12,04,11,37,1.60
2007,12,04,11,38,20.90
2007,12,04,11,39,16.10
2007,12,04,11,40,6.40
2007,12,04,11,41,11.30
2007,12,04,11,42,11.30
2007,12,04,11,43,20.90
2007,12,04,11,44,16.10
2007,12,04,11,45,22.50
2007,12,04,11,46,14.50
2007,12,04,11,47,4.80
2007,12,04,11,48,6.40
2007,12,04,11,49,9.60
2007,12,04,11,50,11.30
2007,12,04,11,51,11.30
2007,12,04,11,52,4.80
2007,12,04,11,53,14.50
2007,12,04,11,54,8.10
2007,12,04,11,55,6.40
2007,12,04,11,56,8.10
2007,12,04,11,57,4.80
2007,12,04,11,58,12.90
2007,12,04,11,59,11.30
2007,12,04,12,00,9.60
2007,12,04,12,01,11.30
2007,12,04,12,02,9.60
2007,12,04,12,03,14.50
2007,12,04,12,04,16.10
2007,12,04,12,05,6.40
2007,12,04,12,06,6.40
2007,12,04,12,07,17.70
2007,12,04,12,08,17.70
2007,12,04,12,09,11.30
2007,12,04,12,10,9.60
2007,12,04,12,11,8.10
2007,12,04,12,12,19.30
2007,12,04,12,13,12.90
2007,12,04,12,14,11.30
2007,12,04,12,15,16.10
2007,12,04,12,16,14.50
2007,12,04,12,17,16.10
2007,12,04,12,18,8.10
2007,12,04,12,19,16.10
2007,12,04,12,20,8.10
2007,12,04,12,21,14.50
2007,12,04,12,22,11.30
2007,12,04,12,23,9.60
2007,12,04,12,24,8.10
2007,12,04,12,25,4.80
2007,12,04,12,26,9.60
2007,12,04,12,27,22.50
2007,12,04,12,28,25.70
2007,12,04,12,29,22.50
2007,12,04,12,30,12.90
2007,12,04,12,31,12.90
2007,12,04,12,32,8.10
2007,12,04,12,33,8.10
2007,12,04,12,34,3.20
2007,12,04,12,35,8.10
2007,12,04,12,36,9.60
2007,12,04,12,37,9.60
2007,12,04,12,38,4.80
2007,12,04,12,39,14.50
2007,12,04,12,40,16.10
2007,12,04,12,41,11.30
2007,12,04,12,42,16.10
2007,12,04,12,43,17.70
2007,12,04,12,44,22.50
2007,12,04,12,45,20.90
2007,12,04,12,46,11.30
2007,12,04,12,47,9.60
2007,12,04,12,48,11.30
2007,12,04,12,49,4.80
2007,12,04,12,50,6.40
2007,12,04,12,51,6.40
2007,12,04,12,52,6.40
2007,12,04,12,53,8.10
2007,12,04,12,54,16.10
2007,12,04,12,55,6.40
2007,12,04,12,56,9.60
2007,12,04,12,57,4.80
2007,12,04,12,58,8.10
2007,12,04,12,59,8.10
2007,12,04,13,00,6.40
2007,12,04,13,01,8.10
2007,12,04,13,02,1.60
2007,12,04,13,03,4.80
2007,12,04,13,04,14.50
2007,12,04,13,05,6.40
2007,12,04,13,06,6.40
2007,12,04,13,07,4.80
2007,12,04,13,08,3.20
2007,12,04,13,09,8.10
2007,12,04,13,10,9.60
2007,12,04,13,11,11.30
2007,12,04,13,12,3.20
2007,12,04,13,13,9.60
2007,12,04,13,14,14.50
2007,12,04,13,15,4.80
2007,12,04,13,16,9.60
2007,12,04,13,17,9.60
2007,12,04,13,18,8.10
2007,12,04,13,19,16.10
2007,12,04,13,20,22.50
2007,12,04,13,21,14.50
2007,12,04,13,22,27.40
2007,12,04,13,23,11.30
2007,12,04,13,24,14.50
2007,12,04,13,25,16.10
2007,12,04,13,26,11.30
2007,12,04,13,27,6.40
2007,12,04,13,28,9.60
2007,12,04,13,29,8.10
2007,12,04,13,30,14.50
2007,12,04,13,31,9.60
2007,12,04,13,32,11.30
2007,12,04,13,33,14.50
2007,12,04,13,34,4.80
2007,12,04,13,35,4.80
2007,12,04,13,36,9.60
2007,12,04,13,37,9.60
2007,12,04,13,38,9.60
2007,12,04,13,39,16.10
2007,12,04,13,40,6.40
2007,12,04,13,41,6.40
2007,12,04,13,42,8.10
2007,12,04,13,43,8.10
2007,12,04,13,44,8.10
2007,12,04,13,45,8.10
2007,12,04,13,46,6.40
2007,12,04,13,47,19.30
2007,12,04,13,48,11.30
2007,12,04,13,49,11.30
2007,12,04,13,50,9.60
2007,12,04,13,51,6.40
2007,12,04,13,52,6.40
2007,12,04,13,53,8.10
2007,12,04,13,54,12.90
2007,12,04,13,55,4.80
2007,12,04,13,56,4.80
2007,12,04,13,57,4.80
2007,12,04,13,58,4.80
2007,12,04,13,59,4.80
2007,12,04,14,00,4.80
2007,12,04,14,01,9.60
2007,12,04,14,02,8.10
2007,12,04,14,03,4.80
2007,12,04,14,04,4.80
2007,12,04,14,05,8.10
2007,12,04,14,06,9.60
2007,12,04,14,07,8.10
2007,12,04,14,08,8.10
2007,12,04,14,09,6.40
2007,12,04,14,10,8.10
2007,12,04,14,11,6.40
2007,12,04,14,12,4.80
2007,12,04,14,13,9.60
2007,12,04,14,14,9.60
2007,12,04,14,15,9.60
2007,12,04,14,16,4.80
2007,12,04,14,17,4.80
2007,12,04,14,18,4.80
2007,12,04,14,19,4.80
2007,12,04,14,20,8.10
2007,12,04,14,21,11.30
2007,12,04,14,22,16.10
2007,12,04,14,23,11.30
2007,12,04,14,24,9.60
2007,12,04,14,25,4.80
2007,12,04,14,26,6.40
2007,12,04,14,27,8.10
2007,12,04,14,28,8.10
2007,12,04,14,29,4.80
2007,12,04,14,30,0.00
2007,12,04,14,31,3.20
2007,12,04,14,32,3.20
2007,12,04,14,33,1.60
2007,12,04,14,34,1.60
2007,12,04,14,35,3.20
2007,12,04,14,36,4.80
2007,12,04,14,37,6.40
2007,12,04,14,38,6.40
2007,12,04,14,39,6.40
2007,12,04,14,40,1.60
2007,12,04,14,41,6.40
2007,12,04,14,42,8.10
2007,12,04,14,43,8.10
2007,12,04,14,44,9.60
2007,12,04,14,45,4.80
2007,12,04,14,46,3.20
2007,12,04,14,47,4.80
2007,12,04,14,48,3.20
2007,12,04,14,49,4.80
2007,12,04,14,50,1.60
2007,12,04,14,51,6.40
2007,12,04,14,52,4.80
2007,12,04,14,53,3.20
2007,12,04,14,54,4.80
2007,12,04,14,55,4.80
2007,12,04,14,56,6.40
2007,12,04,14,57,3.20
2007,12,04,14,58,3.20
2007,12,04,14,59,6.40
2007,12,04,15,00,1.60
2007,12,04,15,01,3.20
2007,12,04,15,02,6.40
2007,12,04,15,03,6.40
2007,12,04,15,04,4.80
2007,12,04,15,05,8.10
2007,12,04,15,06,8.10
2007,12,04,15,07,6.40
2007,12,04,15,08,9.60
2007,12,04,15,09,11.30
2007,12,04,15,10,6.40
2007,12,04,15,11,4.80
2007,12,04,15,12,6.40
2007,12,04,15,13,4.80
2007,12,04,15,14,8.10
2007,12,04,15,15,9.60
2007,12,04,15,16,6.40
2007,12,04,15,17,3.20
2007,12,04,15,18,3.20
2007,12,04,15,19,3.20
2007,12,04,15,20,8.10
2007,12,04,15,21,8.10
2007,12,04,15,22,4.80
2007,12,04,15,23,4.80
2007,12,04,15,24,6.40
2007,12,04,15,25,3.20
2007,12,04,15,26,1.60
2007,12,04,15,27,3.20
2007,12,04,15,28,0.00
2007,12,04,15,29,0.00
2007,12,04,15,30,0.00
2007,12,04,15,31,6.40
2007,12,04,15,32,11.30
2007,12,04,15,33,9.60
2007,12,04,15,34,20.90
2007,12,04,15,35,9.60
2007,12,04,15,36,32.20
2007,12,04,15,37,19.30
2007,12,04,15,38,17.70
2007,12,04,15,39,4.80
2007,12,04,15,40,19.30
2007,12,04,15,41,33.80
2007,12,04,15,42,22.50
2007,12,04,15,43,20.90
2007,12,04,15,44,14.50
2007,12,04,15,45,19.30
2007,12,04,15,46,14.50
2007,12,04,15,47,14.50
2007,12,04,15,48,24.20
2007,12,04,15,49,20.90
2007,12,04,15,50,14.50
2007,12,04,15,51,14.50
2007,12,04,15,52,14.50
2007,12,04,15,53,24.20
2007,12,04,15,54,19.30
2007,12,04,15,55,19.30
2007,12,04,15,56,9.60
2007,12,04,15,57,6.40
2007,12,04,15,58,19.30
2007,12,04,15,59,14.50
2007,12,04,16,00,9.60
2007,12,04,16,01,8.10
2007,12,04,16,02,9.60
2007,12,04,16,03,9.60
2007,12,04,16,04,9.60
2007,12,04,16,05,8.10
2007,12,04,16,06,11.30
2007,12,04,16,07,16.10
2007,12,04,16,08,14.50
2007,12,04,16,09,9.60
2007,12,04,16,10,6.40
2007,12,04,16,11,9.60
2007,12,04,16,12,8.10
2007,12,04,16,13,4.80
2007,12,04,16,14,0.00
2007,12,04,16,15,1.60
2007,12,04,16,16,4.80
2007,12,04,16,17,3.20
2007,12,04,16,18,6.40
2007,12,04,16,19,6.40
2007,12,04,16,20,6.40
2007,12,04,16,21,4.80
2007,12,04,16,22,0.00
2007,12,04,16,23,0.00
2007,12,04,16,24,0.00
2007,12,04,16,25,0.00
2007,12,04,16,26,0.00
2007,12,04,16,27,0.00
2007,12,04,16,28,3.20
2007,12,04,16,29,4.80
2007,12,04,16,30,4.80
2007,12,04,16,31,0.00
2007,12,04,16,32,0.00
2007,12,04,16,33,1.60
2007,12,04,16,34,8.10
2007,12,04,16,35,8.10
2007,12,04,16,36,4.80
2007,12,04,16,37,9.60
2007,12,04,16,38,8.10
2007,12,04,16,39,8.10
2007,12,04,16,40,8.10
2007,12,04,16,41,6.40
2007,12,04,16,42,4.80
2007,12,04,16,43,6.40
2007,12,04,16,44,19.30
2007,12,04,16,45,19.30
2007,12,04,16,46,8.10
2007,12,04,16,47,8.10
2007,12,04,16,48,14.50
2007,12,04,16,49,11.30
2007,12,04,16,50,8.10
2007,12,04,16,51,16.10
2007,12,04,16,52,6.40
2007,12,04,16,53,9.60
2007,12,04,16,54,11.30
2007,12,04,16,55,9.60
2007,12,04,16,56,11.30
2007,12,04,16,57,11.30
2007,12,04,16,58,9.60
2007,12,04,16,59,14.50
2007,12,04,17,00,9.60
2007,12,04,17,01,9.60
2007,12,04,17,02,11.30
2007,12,04,17,03,11.30
2007,12,04,17,04,9.60
2007,12,04,17,05,8.10
2007,12,04,17,06,20.90
2007,12,04,17,07,4.80
2007,12,04,17,08,16.10
2007,12,04,17,09,17.70
2007,12,04,17,10,17.70
2007,12,04,17,11,19.30
2007,12,04,17,12,8.10
2007,12,04,17,13,17.70
2007,12,04,17,14,11.30
2007,12,04,17,15,11.30
2007,12,04,17,16,16.10
2007,12,04,17,17,11.30
2007,12,04,17,18,9.60
2007,12,04,17,19,8.10
2007,12,04,17,20,8.10
2007,12,04,17,21,9.60
2007,12,04,17,22,14.50
2007,12,04,17,23,6.40
2007,12,04,17,24,8.10
2007,12,04,17,25,6.40
2007,12,04,17,26,8.10
2007,12,04,17,27,8.10
2007,12,04,17,28,12.90
2007,12,04,17,29,14.50
2007,12,04,17,30,9.60
2007,12,04,17,31,14.50
2007,12,04,17,32,6.40
2007,12,04,17,33,9.60
2007,12,04,17,34,9.60
2007,12,04,17,35,19.30
2007,12,04,17,36,12.90
2007,12,04,17,37,9.60
2007,12,04,17,38,6.40
2007,12,04,17,39,3.20
2007,12,04,17,40,4.80
2007,12,04,17,41,3.20
2007,12,04,17,42,6.40
2007,12,04,17,43,6.40
2007,12,04,17,44,6.40
2007,12,04,17,45,8.10
2007,12,04,17,46,12.90
2007,12,04,17,47,8.10
2007,12,04,17,48,12.90
2007,12,04,17,49,14.50
2007,12,04,17,50,8.10
2007,12,04,17,51,14.50